Location: Cz?stochówka
(50.8142°N, 19.0915°E)
Time: 15:03:53
(UTC+00:00)

Cosmos 1707 Rocket - Pass Details

Date: 13 January 2026
Orbit: 599 x 623 km, 82.5° (Epoch: 17 February)

Event Time Altitude Azimuth Distance (km) Brightness Sun altitude
Rises 05:00:07 0° 352° (N) 2,860 6.7 -15.3°
Reaches altitude 10° 05:02:21 10° 355° (N) 1,954 5.9 -14.9°
Maximum altitude 05:06:39 63° 78° (ENE) 675 4.0 -14.3°
Drops below altitude 10° 05:10:54 10° 159° (SSE) 1,946 6.6 -13.6°
Sets 05:13:08 0° 163° (SSE) 2,848 7.5 -13.3°
